User: anonymous   Login
Location: Pleiades Observatory
(40.1297°N, 91.5238°W)
Time: 15:40:30
(UTC-05:00)
Language:

Cosmos 1842 Rocket - Orbit

View from above orbital plane
View from above orbital plane
View from above satellite
View from above satellite

Ground track
Ground track

The orbit data is extracted from the following two-line orbital elements,

1 17912U 87038B   17145.89686809 +.00000070 +00000-0 +56786-5 0  9992
2 17912 082.5036 071.2883 0019013 306.9490 052.9982 14.82930111603341
Epoch (UTC): 25 May 2017 21:31:29
Eccentricity: 0.0019013
inclination: 82.5036°
perigee height: 607 km
apogee height: 633 km
right ascension of ascending node: 71.2883°
argument of perigee: 306.9490°
revolutions per day: 14.82930111
mean anomaly at epoch: 52.9982°
orbit number at epoch: 60334

The dashed part of the orbit path shows where the satellite is in the earth's shadow,  

DLR